Weather History for KITH - October, 2012

Change the Weather History Date:

Tuesday, October 16, 2012

  Actual Average Record
Temperature  
Mean Temperature 41 °F -  
Max Temperature 50 °F 61 °F 82 °F (1947)
Min Temperature 32 °F 40 °F 25 °F (1944)
Degree Days  
Heating Degree Days 24    
Moisture  
Dew Point 34 °F    
Average Humidity 72    
Maximum Humidity 96    
Minimum Humidity 52    
Precipitation  
Precipitation 0.00 in - - ()
Sea Level Pressure  
Sea Level Pressure 29.87 in    
Wind  
Wind Speed 13 mph (NW)    
Max Wind Speed 17 mph    
Max Gust Speed 24 mph    
Visibility 10 miles    
Events      
Averages and records for this station are not official NWS values.
T = Trace of Precipitation, MM = Missing Value Source: NWS Daily Summary

Daily Weather History Graph

Daily Weather History Graph

Search for Another Location

Airport or City:

Trip Planner

Search our weather history database for the weather conditions in past years. The results will help you decide how hot, cold, wet, or windy it might be!

Date:

Astronomy

Oct. 16, 2012 Rise Set
Actual Time 7:20 AM EDT 6:21 PM EDT
Civil Twilight 6:52 AM EDT 6:49 PM EDT
Nautical Twilight 6:19 AM EDT 7:22 PM EDT
Astronomical Twilight 5:46 AM EDT 7:54 PM EDT
Moon 8:43 AM EDT (10/16) 7:01 PM EDT (10/16)
Length of Visible Light 11h 57m
Length of Day
11h 00m
New Moon, 2% of the Moon is Illuminated
Oct 16
New Moon
Oct 21
First Quarter
Oct 29
Full
Nov 6
Last Quarter
Nov 13
New

Hourly Weather History & Observations

Time (EDT) Temp. Windchill Dew Point Humidity Pressure Visibility Wind Dir Wind Speed Gust Speed Precip Events Conditions
12:06 AM 46.4 °F 39.5 °F 37.4 °F 71% 29.78 in 10.0 mi NW 17.3 mph - N/A   Overcast
12:13 AM 46.4 °F 39.5 °F 35.6 °F 66% 29.78 in 10.0 mi NW 17.3 mph - N/A   Overcast
12:27 AM 46.4 °F 39.8 °F 35.6 °F 66% 29.78 in 10.0 mi WNW 16.1 mph - N/A   Overcast
12:56 AM 45.9 °F 39.1 °F 34.9 °F 66% 29.79 in 10.0 mi WNW 16.1 mph - N/A   Overcast
1:56 AM 45.0 °F 38.9 °F 34.9 °F 68% 29.81 in 10.0 mi NW 12.7 mph - N/A   Overcast
2:56 AM 43.9 °F 36.5 °F 34.9 °F 71% 29.81 in 10.0 mi NW 16.1 mph 24.2 mph N/A   Overcast
3:56 AM 43.0 °F 35.4 °F 32.9 °F 68% 29.82 in 10.0 mi NW 16.1 mph 21.9 mph N/A   Overcast
4:56 AM 41.9 °F 34.3 °F 34.0 °F 73% 29.82 in 10.0 mi WNW 15.0 mph 21.9 mph N/A   Overcast
6:14 AM 42.8 °F 35.8 °F 33.8 °F 70% 29.84 in 10.0 mi NW 13.8 mph - N/A   Overcast
7:56 AM 41.9 °F 35.9 °F 36.0 °F 79% 29.88 in 10.0 mi NW 10.4 mph - N/A   Overcast
8:56 AM 41.9 °F 34.3 °F 36.0 °F 79% 29.90 in 10.0 mi NW 15.0 mph - N/A   Overcast
9:56 AM 43.9 °F 36.2 °F 36.9 °F 76% 29.91 in 10.0 mi WNW 17.3 mph - 0.00 in   Mostly Cloudy
10:56 AM 45.0 °F 39.3 °F 36.0 °F 71% 29.92 in 10.0 mi NNW 11.5 mph - N/A   Overcast
12:56 PM 45.9 °F 40.8 °F 36.0 °F 68% 29.91 in 10.0 mi NW 10.4 mph - N/A   Mostly Cloudy
1:56 PM 47.8 °F - 34.0 °F 59% 29.89 in 10.0 mi NW 15.0 mph 19.6 mph N/A   Mostly Cloudy
2:56 PM 50.9 °F - 34.0 °F 52% 29.89 in 10.0 mi WNW 15.0 mph 19.6 mph N/A   Mostly Cloudy
3:56 PM 50.0 °F - 34.0 °F 54% 29.89 in 10.0 mi Variable 5.8 mph - N/A   Scattered Clouds
4:56 PM 48.9 °F - 34.0 °F 56% 29.89 in 10.0 mi NW 8.1 mph - N/A   Partly Cloudy
5:56 PM 46.9 °F - 34.0 °F 61% 29.89 in 10.0 mi NNW 4.6 mph - N/A   Clear
6:56 PM 41.9 °F - 34.0 °F 73% 29.89 in 10.0 mi Calm Calm - N/A   Clear
7:56 PM 37.9 °F 34.4 °F 32.9 °F 82% 29.91 in 10.0 mi NNE 4.6 mph - N/A   Clear
8:56 PM 34.0 °F - 32.0 °F 92% 29.93 in 10.0 mi Calm Calm - N/A   Clear
9:56 PM 34.0 °F - 32.9 °F 96% 29.96 in 10.0 mi Calm Calm - N/A   Clear
10:56 PM 32.9 °F 28.5 °F 32.0 °F 96% 29.97 in 10.0 mi East 4.6 mph - N/A   Clear
11:56 PM 32.9 °F 28.5 °F 32.0 °F 96% 29.95 in 10.0 mi ENE 4.6 mph - N/A   Clear